Tracking 18850 objects as of 22-Nov-2017
HD Live streaming from Space Station
objects crossing your sky now

FENGYUN 1C DEB

Track FENGYUN 1C DEB now!
10-day predictions


NORAD ID: 30388
Int'l Code: 1999-025ADB
Perigee: 682.1 km
Apogee: 1,024.4 km
Inclination: 98.9 °
Period: 101.8 minutes
Semi major axis: 7224 km
RCS: 0.0219 m2 (small)
Launch date: May 10, 1999
Source: People's Republic of China (PRC)
Launch site: Taiyaun Space Center, China (TSC)

Note: This is SATELLITE DEBRIS
aabbcc
Your satellite tracking list
Your tracking list is empty




NASA's NSSDC Master Catalog

Two Line Element Set (TLE):
1 30388U 99025ADB 17325.65581124 +.00000242 +00000-0 +11694-3 0  9999
2 30388 098.9195 354.9057 0236957 195.3113 289.2733 14.13885956557992
Source of the keplerian elements: AFSPC